,,,PA_Meas_PMT16A,,PR_Meas_QMR101_102,,RH_Meas_QMH101,,SR_Meas_QMS101,,TA_Meas_QMH101,,GenWind,,GenWind,
date,time,status,PA,status,PR,status,RH,status,SR,status,TA,status,DirAvg,status,SpdAvg,
2009-07-31, 00:00:04,VALID,1000.2,VALID,0,VALID,61.5863,VALID,0,VALID,27.0982,VALID,171,VALID,5.29688,
2009-07-31, 00:01:04,VALID,1000.22,VALID,0,VALID,61.4947,VALID,0,VALID,27.0591,VALID,172,VALID,3.97383,
2009-07-31, 00:02:04,VALID,1000.19,VALID,0,VALID,61.983,VALID,0,VALID,27.0591,VALID,168,VALID,3.00703,
2009-07-31, 00:03:04,VALID,1000.19,VALID,0,VALID,62.1204,VALID,0,VALID,27.0201,VALID,178,VALID,4.08125,
2009-07-31, 00:04:04,VALID,1000.2,VALID,0,VALID,61.6321,VALID,0,VALID,26.9789,VALID,164,VALID,5.1918,
2009-07-31, 00:05:04,VALID,1000.17,VALID,0,VALID,61.7923,VALID,0,VALID,27.0396,VALID,192,VALID,4.56328,
2009-07-31, 00:06:04,VALID,1000.22,VALID,0,VALID,61.3116,VALID,0,VALID,27.0375,VALID,177,VALID,5.10664,
2009-07-31, 00:07:04,VALID,1000.2,VALID,0,VALID,61.5329,VALID,0,VALID,27.0396,VALID,173,VALID,3.46719,
2009-07-31, 00:08:04,VALID,1000.18,VALID,0,VALID,61.9144,VALID,0,VALID,27.0005,VALID,168,VALID,3.49023,
2009-07-31, 00:09:04,VALID,1000.16,VALID,0,VALID,61.3956,VALID,0,VALID,27.0005,VALID,179,VALID,4.55117,
2009-07-31, 00:10:04,VALID,1000.17,VALID,0,VALID,61.3956,VALID,0,VALID,26.981,VALID,180,VALID,5.29141,
2009-07-31, 00:11:04,VALID,1000.12,VALID,0,VALID,61.2735,VALID,0,VALID,27.0005,VALID,172,VALID,6.45703,
2009-07-31, 00:12:04,VALID,1000.11,VALID,0,VALID,60.8539,VALID,0,VALID,27.0396,VALID,174,VALID,5.60586,
2009-07-31, 00:13:04,VALID,1000.16,VALID,0,VALID,61.1438,VALID,0,VALID,27.0787,VALID,166,VALID,5.68086,
2009-07-31, 00:14:04,VALID,1000.09,VALID,0,VALID,60.8767,VALID,0,VALID,27.0591,VALID,168,VALID,6.07773,
2009-07-31, 00:15:04,VALID,1000.13,VALID,0,VALID,60.8157,VALID,0,VALID,27.0591,VALID,168,VALID,6.29492,
2009-07-31, 00:16:04,VALID,1000.15,VALID,0,VALID,60.5029,VALID,0,VALID,27.0982,VALID,177,VALID,7.14414,
2009-07-31, 00:17:04,VALID,1000.16,VALID,0,VALID,60.6707,VALID,0,VALID,27.0766,VALID,170,VALID,4.70352,
2009-07-31, 00:18:04,VALID,1000.12,VALID,0,VALID,60.7623,VALID,0,VALID,27.0787,VALID,175,VALID,4.84727,
2009-07-31, 00:19:04,VALID,1000.09,VALID,0,VALID,60.9607,VALID,0,VALID,27.0375,VALID,158,VALID,3.43555,
2009-07-31, 00:20:04,VALID,1000.09,VALID,0,VALID,60.625,VALID,0,VALID,27.0201,VALID,176,VALID,6.22813,
2009-07-31, 00:21:04,VALID,1000.14,VALID,0,VALID,60.747,VALID,0,VALID,27.0396,VALID,174,VALID,6.39687,
2009-07-31, 00:22:04,VALID,1000.13,VALID,0,VALID,60.7928,VALID,0,VALID,27.0591,VALID,179,VALID,4.19609,
2009-07-31, 00:23:04,VALID,1000.12,VALID,0,VALID,60.6402,VALID,0,VALID,27.0591,VALID,209,VALID,3.87031,
2009-07-31, 00:24:04,VALID,1000.14,VALID,0,VALID,60.541,VALID,0,VALID,27.0396,VALID,176,VALID,4.15352,
2009-07-31, 00:25:04,VALID,1000.03,VALID,0,VALID,60.6707,VALID,0,VALID,27.0201,VALID,179,VALID,5.98984,
2009-07-31, 00:26:04,VALID,1000.03,VALID,0,VALID,60.3961,VALID,0,VALID,27.0375,VALID,163,VALID,5.9125,
2009-07-31, 00:27:04,VALID,1000.05,VALID,0,VALID,60.6784,VALID,0,VALID,26.9964,VALID,174,VALID,5.35391,
2009-07-31, 00:28:04,VALID,1000.07,VALID,0,VALID,60.8767,VALID,0,VALID,26.9985,VALID,175,VALID,4.6043,
2009-07-31, 00:29:04,VALID,1000,VALID,0,VALID,60.2282,VALID,0,VALID,27.018,VALID,175,VALID,4.7332,
2009-07-31, 00:30:04,VALID,1000,VALID,0,VALID,60.625,VALID,0,VALID,27.0571,VALID,166,VALID,3.54102,
2009-07-31, 00:31:04,VALID,999.989,VALID,0,VALID,60.7699,VALID,0,VALID,27.018,VALID,178,VALID,5.53516,
2009-07-31, 00:32:04,VALID,999.991,VALID,0,VALID,60.5105,VALID,0,VALID,27.0571,VALID,168,VALID,4.19023,
2009-07-31, 00:33:04,VALID,999.948,VALID,0,VALID,60.8691,VALID,0,VALID,27.0375,VALID,165,VALID,3.20156,
2009-07-31, 00:34:04,VALID,999.927,VALID,0,VALID,60.7852,VALID,0,VALID,26.9789,VALID,173,VALID,6.03711,
2009-07-31, 00:35:05,VALID,999.901,VALID,0,VALID,60.6479,VALID,0,VALID,27.018,VALID,183,VALID,4.92695,
2009-07-31, 00:36:05,VALID,999.942,VALID,0,VALID,60.625,VALID,0,VALID,27.0571,VALID,169,VALID,3.65586,
2009-07-31, 00:37:05,VALID,999.901,VALID,0,VALID,60.8539,VALID,0,VALID,27.018,VALID,175,VALID,5.99531,
2009-07-31, 00:38:05,VALID,999.919,VALID,0,VALID,60.8539,VALID,0,VALID,26.9594,VALID,171,VALID,7.96211,
2009-07-31, 00:39:05,VALID,999.862,VALID,0,VALID,60.5868,VALID,0,VALID,27.0375,VALID,185,VALID,5.02383,
2009-07-31, 00:40:05,VALID,999.829,VALID,0,VALID,60.7547,VALID,0,VALID,27.0571,VALID,185,VALID,4.53633,
2009-07-31, 00:41:05,VALID,999.85,VALID,0,VALID,61.5481,VALID,0,VALID,26.9985,VALID,169,VALID,3.96055,
2009-07-31, 00:42:05,VALID,999.808,VALID,0,VALID,61.7999,VALID,0,VALID,26.8793,VALID,166,VALID,5.17188,
2009-07-31, 00:43:05,VALID,999.78,VALID,0,VALID,61.7541,VALID,0,VALID,26.8402,VALID,168,VALID,5.07461,
2009-07-31, 00:44:05,VALID,999.719,VALID,0,VALID,61.7618,VALID,0,VALID,26.8597,VALID,177,VALID,6.17383,
2009-07-31, 00:45:05,VALID,999.715,VALID,0,VALID,61.8228,VALID,0,VALID,26.9008,VALID,158,VALID,5.06289,
2009-07-31, 00:46:05,VALID,999.699,VALID,0,VALID,62.128,VALID,0,VALID,26.8422,VALID,166,VALID,4.31484,
2009-07-31, 00:47:05,VALID,999.63,VALID,0,VALID,62.4332,VALID,0,VALID,26.7836,VALID,167,VALID,5.57305,
2009-07-31, 00:48:05,VALID,999.588,VALID,0,VALID,61.9678,VALID,0,VALID,26.8032,VALID,173,VALID,5.33945,
2009-07-31, 00:49:05,VALID,999.576,VALID,0,VALID,62.2501,VALID,0,VALID,26.8227,VALID,165,VALID,4.70625,
2009-07-31, 00:50:05,VALID,999.577,VALID,0,VALID,61.9373,VALID,0,VALID,26.8032,VALID,171,VALID,6.525,
2009-07-31, 00:51:05,VALID,999.497,VALID,0,VALID,61.7694,VALID,0,VALID,26.8402,VALID,163,VALID,6.74297,
2009-07-31, 00:52:05,VALID,999.483,VALID,0,VALID,61.9525,VALID,0,VALID,26.8422,VALID,181,VALID,6.5668,
2009-07-31, 00:53:05,VALID,999.4,VALID,0,VALID,61.5024,VALID,0,VALID,26.9204,VALID,182,VALID,7.29766,
2009-07-31, 00:54:05,VALID,999.427,VALID,0,VALID,61.7618,VALID,0,VALID,26.9008,VALID,175,VALID,6.1125,
2009-07-31, 00:55:05,VALID,999.421,VALID,0,VALID,61.7465,VALID,0,VALID,26.8402,VALID,171,VALID,5.71445,
2009-07-31, 00:56:05,VALID,999.404,VALID,0,VALID,61.8533,VALID,0,VALID,26.8422,VALID,180,VALID,4.76992,
2009-07-31, 00:57:05,VALID,999.415,VALID,0,VALID,61.7999,VALID,0,VALID,26.8422,VALID,169,VALID,5.07305,
2009-07-31, 00:58:05,VALID,999.398,VALID,0,VALID,62.1661,VALID,0,VALID,26.8247,VALID,171,VALID,6.48438,
2009-07-31, 00:59:05,VALID,999.388,VALID,0,VALID,62.0441,VALID,0,VALID,26.8032,VALID,170,VALID,5.92812,
2009-07-31, 01:00:05,VALID,999.4,VALID,0,VALID,61.7923,VALID,0,VALID,26.8227,VALID,172,VALID,5.29688,
2009-07-31, 01:01:05,VALID,999.408,VALID,0,VALID,61.8915,VALID,0,VALID,26.8032,VALID,174,VALID,6.21055,
2009-07-31, 01:02:05,VALID,999.371,VALID,0,VALID,61.6855,VALID,0,VALID,26.8638,VALID,178,VALID,6.02891,
2009-07-31, 01:03:05,VALID,999.365,VALID,0,VALID,61.5939,VALID,0,VALID,26.8422,VALID,176,VALID,5.26875,
2009-07-31, 01:04:05,VALID,999.426,VALID,0,VALID,61.5787,VALID,0,VALID,26.8638,VALID,181,VALID,5.23711,
2009-07-31, 01:05:05,VALID,999.377,VALID,0,VALID,61.4566,VALID,0,VALID,26.9029,VALID,166,VALID,5.66484,
2009-07-31, 01:06:05,VALID,999.368,VALID,0,VALID,61.6016,VALID,0,VALID,26.8443,VALID,169,VALID,5.06367,
2009-07-31, 01:07:05,VALID,999.392,VALID,0,VALID,61.3956,VALID,0,VALID,26.8443,VALID,180,VALID,4.92266,
2009-07-31, 01:08:05,VALID,999.295,VALID,0,VALID,61.4642,VALID,0,VALID,26.8422,VALID,173,VALID,7.26992,
2009-07-31, 01:09:05,VALID,999.247,VALID,0,VALID,61.0141,VALID,0,VALID,26.8422,VALID,177,VALID,8.06328,
2009-07-31, 01:10:05,VALID,999.304,VALID,0,VALID,61.1819,VALID,0,VALID,26.9224,VALID,171,VALID,6.08242,
2009-07-31, 01:11:05,VALID,999.248,VALID,0,VALID,61.2124,VALID,0,VALID,26.9029,VALID,167,VALID,5.29141,
2009-07-31, 01:12:05,VALID,999.252,VALID,0,VALID,60.9225,VALID,0,VALID,26.8618,VALID,163,VALID,5.7125,
2009-07-31, 01:13:05,VALID,999.266,VALID,0,VALID,61.0141,VALID,0,VALID,26.8618,VALID,182,VALID,6.99141,
2009-07-31, 01:14:05,VALID,999.175,VALID,0,VALID,60.8844,VALID,0,VALID,26.8833,VALID,176,VALID,7.19102,
2009-07-31, 01:15:05,VALID,999.284,VALID,0,VALID,61.1285,VALID,0,VALID,26.9029,VALID,172,VALID,6.14336,
2009-07-31, 01:16:05,VALID,999.229,VALID,0,VALID,61.0675,VALID,0,VALID,26.8247,VALID,172,VALID,4.94297,
2009-07-31, 01:17:05,VALID,999.226,VALID,0,VALID,61.4566,VALID,0,VALID,26.7661,VALID,172,VALID,5.51914,
2009-07-31, 01:18:05,VALID,999.209,VALID,0,VALID,61.4718,VALID,0,VALID,26.7251,VALID,172,VALID,5.08164,
2009-07-31, 01:19:05,VALID,999.2,VALID,0,VALID,61.5253,VALID,0,VALID,26.7055,VALID,171,VALID,6.15391,
2009-07-31, 01:20:05,VALID,999.146,VALID,0,VALID,61.4871,VALID,0,VALID,26.7055,VALID,166,VALID,6.20664,
2009-07-31, 01:21:05,VALID,999.145,VALID,0,VALID,61.365,VALID,0,VALID,26.7271,VALID,179,VALID,5.1418,
2009-07-31, 01:22:05,VALID,999.151,VALID,0,VALID,61.4795,VALID,0,VALID,26.7251,VALID,168,VALID,5.16289,
2009-07-31, 01:23:05,VALID,999.148,VALID,0,VALID,61.6168,VALID,0,VALID,26.7055,VALID,169,VALID,5.15,
2009-07-31, 01:24:05,VALID,999.147,VALID,0,VALID,61.7084,VALID,0,VALID,26.7271,VALID,170,VALID,4.16875,
2009-07-31, 01:25:05,VALID,999.092,VALID,0,VALID,61.8381,VALID,0,VALID,26.7271,VALID,172,VALID,5.53672,
2009-07-31, 01:26:05,VALID,999.044,VALID,0,VALID,61.6092,VALID,0,VALID,26.688,VALID,176,VALID,4.77578,
2009-07-31, 01:27:05,VALID,999.043,VALID,0,VALID,61.6016,VALID,0,VALID,26.7076,VALID,171,VALID,5.50234,
2009-07-31, 01:28:05,VALID,999.031,VALID,0,VALID,61.3879,VALID,0,VALID,26.686,VALID,179,VALID,5.96484,
2009-07-31, 01:29:05,VALID,999.044,VALID,0,VALID,61.0446,VALID,0,VALID,26.7466,VALID,174,VALID,6.08047,
2009-07-31, 01:30:05,VALID,998.995,VALID,0,VALID,61.1438,VALID,0,VALID,26.7857,VALID,166,VALID,4.56094,
2009-07-31, 01:31:05,VALID,999.037,VALID,0,VALID,61.304,VALID,0,VALID,26.7466,VALID,169,VALID,5.54805,
2009-07-31, 01:32:05,VALID,999.015,VALID,0,VALID,61.3727,VALID,0,VALID,26.688,VALID,165,VALID,5.91836,
2009-07-31, 01:33:05,VALID,999.025,VALID,0,VALID,61.3269,VALID,0,VALID,26.686,VALID,171,VALID,5.19805,
2009-07-31, 01:34:05,VALID,999.027,VALID,0,VALID,61.7541,VALID,0,VALID,26.6685,VALID,165,VALID,4.81914,
2009-07-31, 01:35:05,VALID,999.012,VALID,0,VALID,61.7923,VALID,0,VALID,26.6274,VALID,164,VALID,6.19219,
2009-07-31, 01:36:05,VALID,998.984,VALID,0,VALID,61.5863,VALID,0,VALID,26.649,VALID,175,VALID,5.91953,
2009-07-31, 01:37:05,VALID,999.008,VALID,0,VALID,61.3574,VALID,0,VALID,26.6469,VALID,173,VALID,6.03398,
2009-07-31, 01:38:05,VALID,999.038,VALID,0,VALID,61.5939,VALID,0,VALID,26.6685,VALID,171,VALID,4.90352,
2009-07-31, 01:39:05,VALID,999.066,VALID,0,VALID,61.5253,VALID,0,VALID,26.6685,VALID,180,VALID,4.41797,
2009-07-31, 01:40:05,VALID,999.001,VALID,0,VALID,61.716,VALID,0,VALID,26.6469,VALID,163,VALID,4.60977,
2009-07-31, 01:41:05,VALID,999.021,VALID,0,VALID,60.9301,VALID,0,VALID,26.6685,VALID,179,VALID,7.35586,
2009-07-31, 01:42:05,VALID,999.016,VALID,0,VALID,60.8844,VALID,0,VALID,26.7251,VALID,184,VALID,4.68906,
2009-07-31, 01:43:05,VALID,999.023,VALID,0,VALID,60.953,VALID,0,VALID,26.7251,VALID,178,VALID,7.55,
2009-07-31, 01:44:05,VALID,999.025,VALID,0,VALID,61.0904,VALID,0,VALID,26.7251,VALID,177,VALID,5.57031,
2009-07-31, 01:45:05,VALID,999.02,VALID,0,VALID,60.7394,VALID,0,VALID,26.7055,VALID,178,VALID,4.64258,
2009-07-31, 01:46:05,VALID,999.13,VALID,0,VALID,61.0141,VALID,0,VALID,26.7466,VALID,171,VALID,6.43047,
2009-07-31, 01:47:05,VALID,999.043,VALID,0,VALID,60.8233,VALID,0,VALID,26.7466,VALID,167,VALID,6.89883,
2009-07-31, 01:48:05,VALID,999.127,VALID,0,VALID,60.8081,VALID,0,VALID,26.7446,VALID,187,VALID,5.35781,
2009-07-31, 01:49:05,VALID,999.096,VALID,0,VALID,60.8004,VALID,0,VALID,26.7466,VALID,165,VALID,5.27383,
2009-07-31, 01:50:05,VALID,999.097,VALID,0,VALID,61.0446,VALID,0,VALID,26.7466,VALID,194,VALID,3.75703,
2009-07-31, 01:51:05,VALID,999.122,VALID,0,VALID,61.1819,VALID,0,VALID,26.7076,VALID,174,VALID,3.68516,
2009-07-31, 01:52:05,VALID,999.111,VALID,0,VALID,60.8081,VALID,0,VALID,26.6665,VALID,178,VALID,5.35195,
2009-07-31, 01:53:05,VALID,999.071,VALID,0,VALID,60.7928,VALID,0,VALID,26.6469,VALID,182,VALID,5.56328,
2009-07-31, 01:54:05,VALID,999.038,VALID,0,VALID,60.541,VALID,0,VALID,26.688,VALID,161,VALID,7.72344,
2009-07-31, 01:55:05,VALID,999.106,VALID,0,VALID,60.3121,VALID,0,VALID,26.7446,VALID,183,VALID,6.69922,
2009-07-31, 01:56:05,VALID,999.135,VALID,0,VALID,60.6784,VALID,0,VALID,26.7641,VALID,169,VALID,4.68359,
2009-07-31, 01:57:05,VALID,999.135,VALID,0,VALID,60.7089,VALID,0.112286,VALID,26.7446,VALID,175,VALID,5.2793,
2009-07-31, 01:58:05,VALID,999.062,VALID,0,VALID,60.6173,VALID,0.112286,VALID,26.6644,VALID,185,VALID,5.14102,
2009-07-31, 01:59:05,VALID,999.109,VALID,0,VALID,60.1672,VALID,0,VALID,26.7836,VALID,196,VALID,5.51523,
2009-07-31, 02:00:05,VALID,999.119,VALID,0,VALID,60.0375,VALID,0,VALID,26.8422,VALID,182,VALID,5.68477,
2009-07-31, 02:01:05,VALID,999.123,VALID,0,VALID,60.1519,VALID,0.112286,VALID,26.8422,VALID,188,VALID,5.59766,
2009-07-31, 02:02:05,VALID,999.086,VALID,0,VALID,60.3961,VALID,0,VALID,26.7816,VALID,200,VALID,3.41484,
2009-07-31, 02:03:05,VALID,999.104,VALID,0,VALID,60.6021,VALID,0.112286,VALID,26.7641,VALID,190,VALID,1.9707,
2009-07-31, 02:04:05,VALID,998.987,VALID,0,VALID,60.8767,VALID,0,VALID,26.684,VALID,182,VALID,6.82656,
2009-07-31, 02:05:05,VALID,999.1,VALID,0,VALID,60.7089,VALID,0,VALID,26.684,VALID,170,VALID,4.72109,
2009-07-31, 02:06:05,VALID,999.074,VALID,0,VALID,61.0446,VALID,0,VALID,26.6665,VALID,183,VALID,3.72383,
2009-07-31, 02:07:05,VALID,999.032,VALID,0,VALID,60.1672,VALID,0.112286,VALID,26.7035,VALID,182,VALID,4.82148,
2009-07-31, 02:08:05,VALID,999.052,VALID,0,VALID,60.1977,VALID,0,VALID,26.7621,VALID,187,VALID,3.45977,
2009-07-31, 02:09:05,VALID,998.989,VALID,0,VALID,60.1214,VALID,0.112286,VALID,26.7816,VALID,186,VALID,3.90859,
2009-07-31, 02:10:05,VALID,998.988,VALID,0,VALID,60.1977,VALID,0,VALID,26.723,VALID,169,VALID,4.7957,
2009-07-31, 02:11:05,VALID,998.975,VALID,0,VALID,60.335,VALID,0,VALID,26.7055,VALID,175,VALID,6.11523,
2009-07-31, 02:12:05,VALID,998.987,VALID,0,VALID,60.2587,VALID,0,VALID,26.7271,VALID,173,VALID,4.79531,
2009-07-31, 02:13:05,VALID,998.975,VALID,0,VALID,60.625,VALID,0,VALID,26.7271,VALID,174,VALID,3.82266,
2009-07-31, 02:14:05,VALID,998.876,VALID,0,VALID,60.2816,VALID,0,VALID,26.688,VALID,197,VALID,4.34766,
2009-07-31, 02:15:05,VALID,998.896,VALID,0,VALID,60.5792,VALID,0,VALID,26.686,VALID,183,VALID,5.57656,
2009-07-31, 02:16:05,VALID,998.887,VALID,0,VALID,60.9759,VALID,0,VALID,26.6294,VALID,176,VALID,3.97969,
2009-07-31, 02:17:05,VALID,998.84,VALID,0,VALID,60.7776,VALID,0,VALID,26.6099,VALID,173,VALID,6.13477,
2009-07-31, 02:18:05,VALID,998.772,VALID,0,VALID,60.3732,VALID,0,VALID,26.6274,VALID,184,VALID,5.96133,
2009-07-31, 02:19:05,VALID,998.84,VALID,0,VALID,60.419,VALID,0,VALID,26.686,VALID,175,VALID,5.88945,
2009-07-31, 02:20:05,VALID,998.836,VALID,0,VALID,60.419,VALID,0,VALID,26.686,VALID,179,VALID,4.99297,
2009-07-31, 02:21:05,VALID,998.82,VALID,0,VALID,60.5334,VALID,0,VALID,26.6665,VALID,174,VALID,4.00859,
2009-07-31, 02:22:05,VALID,998.79,VALID,0,VALID,60.1519,VALID,0,VALID,26.6665,VALID,168,VALID,7.06133,
2009-07-31, 02:23:05,VALID,998.774,VALID,0,VALID,60.4342,VALID,0,VALID,26.686,VALID,178,VALID,4.77617,
2009-07-31, 02:24:05,VALID,998.784,VALID,0,VALID,60.7547,VALID,0,VALID,26.6274,VALID,175,VALID,5.55937,
2009-07-31, 02:25:05,VALID,998.773,VALID,0,VALID,60.4037,VALID,0,VALID,26.649,VALID,174,VALID,6.63984,
2009-07-31, 02:26:05,VALID,998.706,VALID,0,VALID,60.3884,VALID,0,VALID,26.686,VALID,175,VALID,5.19844,
2009-07-31, 02:27:05,VALID,998.682,VALID,0,VALID,60.0222,VALID,0,VALID,26.686,VALID,173,VALID,5.68789,
2009-07-31, 02:28:05,VALID,998.725,VALID,0,VALID,60.3198,VALID,0,VALID,26.7055,VALID,177,VALID,5.11406,
2009-07-31, 02:29:05,VALID,998.684,VALID,0,VALID,60.2435,VALID,0,VALID,26.6665,VALID,174,VALID,5.89102,
2009-07-31, 02:30:05,VALID,998.695,VALID,0,VALID,60.3274,VALID,0,VALID,26.6665,VALID,176,VALID,4.84023,
2009-07-31, 02:31:05,VALID,998.642,VALID,0,VALID,60.1519,VALID,0,VALID,26.688,VALID,167,VALID,5.23984,
2009-07-31, 02:32:05,VALID,998.625,VALID,0,VALID,60.5716,VALID,0,VALID,26.6469,VALID,168,VALID,5.20898,
2009-07-31, 02:33:05,VALID,998.646,VALID,0,VALID,60.7547,VALID,0,VALID,26.6099,VALID,170,VALID,3.98672,
2009-07-31, 02:34:05,VALID,998.605,VALID,0,VALID,60.3656,VALID,0,VALID,26.6079,VALID,172,VALID,4.925,
2009-07-31, 02:35:05,VALID,998.607,VALID,0,VALID,60.4647,VALID,0,VALID,26.649,VALID,180,VALID,3.82305,
2009-07-31, 02:36:05,VALID,998.653,VALID,0,VALID,61.1972,VALID,0,VALID,26.5904,VALID,180,VALID,3.88906,
2009-07-31, 02:37:05,VALID,998.578,VALID,0,VALID,60.8844,VALID,0,VALID,26.5298,VALID,165,VALID,3.91836,
2009-07-31, 02:38:05,VALID,998.556,VALID,0,VALID,60.8767,VALID,0,VALID,26.5102,VALID,170,VALID,5.11133,
2009-07-31, 02:39:05,VALID,998.511,VALID,0,VALID,60.831,VALID,0,VALID,26.5298,VALID,175,VALID,4.99219,
2009-07-31, 02:40:05,VALID,998.499,VALID,0,VALID,60.3274,VALID,0,VALID,26.6099,VALID,181,VALID,6.05156,
2009-07-31, 02:41:05,VALID,998.515,VALID,0,VALID,60.3961,VALID,0,VALID,26.649,VALID,179,VALID,4.75586,
2009-07-31, 02:42:05,VALID,998.514,VALID,0,VALID,60.8462,VALID,0,VALID,26.5688,VALID,180,VALID,4.97305,
2009-07-31, 02:43:05,VALID,998.51,VALID,0,VALID,60.541,VALID,0,VALID,26.5904,VALID,168,VALID,5.51367,
2009-07-31, 02:44:05,VALID,998.462,VALID,0,VALID,60.2435,VALID,0,VALID,26.6079,VALID,171,VALID,5.28047,
2009-07-31, 02:45:05,VALID,998.47,VALID,0,VALID,60.6021,VALID,0,VALID,26.6099,VALID,183,VALID,4.37617,
2009-07-31, 02:46:05,VALID,998.394,VALID,0,VALID,60.1901,VALID,0,VALID,26.6274,VALID,173,VALID,6.56797,
2009-07-31, 02:47:05,VALID,998.417,VALID,0,VALID,60.5105,VALID,0,VALID,26.6079,VALID,164,VALID,5.13398,
2009-07-31, 02:48:05,VALID,998.369,VALID,0,VALID,60.0451,VALID,0,VALID,26.5884,VALID,173,VALID,5.59883,
2009-07-31, 02:49:05,VALID,998.341,VALID,0,VALID,60.3503,VALID,0,VALID,26.6079,VALID,172,VALID,4.9332,
2009-07-31, 02:50:05,VALID,998.312,VALID,0,VALID,60.1061,VALID,0,VALID,26.649,VALID,167,VALID,6.69453,
2009-07-31, 02:51:05,VALID,998.256,VALID,0,VALID,60.0604,VALID,0,VALID,26.6685,VALID,193,VALID,4.21055,
2009-07-31, 02:52:05,VALID,998.226,VALID,0,VALID,60.2969,VALID,0,VALID,26.6685,VALID,165,VALID,5.26328,
2009-07-31, 02:53:05,VALID,998.274,VALID,0,VALID,60.5487,VALID,0,VALID,26.5884,VALID,175,VALID,4.8957,
2009-07-31, 02:54:05,VALID,998.203,VALID,0,VALID,60.3121,VALID,0,VALID,26.6079,VALID,173,VALID,4.88008,
2009-07-31, 02:55:05,VALID,998.181,VALID,0,VALID,60.6707,VALID,0,VALID,26.5884,VALID,168,VALID,4.24062,
2009-07-31, 02:56:05,VALID,998.136,VALID,0,VALID,60.5716,VALID,0,VALID,26.5513,VALID,167,VALID,5.61094,
2009-07-31, 02:57:05,VALID,998.133,VALID,0,VALID,60.4647,VALID,0,VALID,26.5318,VALID,183,VALID,4.2543,
2009-07-31, 02:58:05,VALID,998.15,VALID,0,VALID,60.747,VALID,0,VALID,26.5513,VALID,184,VALID,4.98516,
2009-07-31, 02:59:05,VALID,998.15,VALID,0,VALID,60.2893,VALID,0,VALID,26.6099,VALID,179,VALID,6.16133,
2009-07-31, 03:00:05,VALID,998.046,VALID,0,VALID,59.9764,VALID,0,VALID,26.6274,VALID,165,VALID,6.50625,
2009-07-31, 03:01:05,VALID,998.083,VALID,0,VALID,60.3579,VALID,0,VALID,26.6079,VALID,176,VALID,5.46328,
2009-07-31, 03:02:05,VALID,998.075,VALID,0,VALID,60.5792,VALID,0,VALID,26.5708,VALID,170,VALID,5.11094,
2009-07-31, 03:03:05,VALID,998.08,VALID,0,VALID,60.4113,VALID,0,VALID,26.5493,VALID,176,VALID,4.94414,
2009-07-31, 03:04:05,VALID,998.074,VALID,0,VALID,60.6479,VALID,0,VALID,26.5318,VALID,165,VALID,3.87266,
2009-07-31, 03:05:05,VALID,998.082,VALID,0,VALID,60.9378,VALID,0,VALID,26.4927,VALID,176,VALID,3.25273,
2009-07-31, 03:06:05,VALID,997.977,VALID,0,VALID,60.3732,VALID,0,VALID,26.5102,VALID,174,VALID,7.43242,
2009-07-31, 03:07:05,VALID,998.018,VALID,0,VALID,60.3045,VALID,0,VALID,26.5904,VALID,175,VALID,6.24219,
2009-07-31, 03:08:05,VALID,997.994,VALID,0,VALID,60.3579,VALID,0,VALID,26.6099,VALID,172,VALID,5.6207,
2009-07-31, 03:09:05,VALID,997.992,VALID,0,VALID,60.4418,VALID,0,VALID,26.5688,VALID,171,VALID,5.32148,
2009-07-31, 03:10:05,VALID,998.043,VALID,0,VALID,60.335,VALID,0,VALID,26.5708,VALID,178,VALID,7.11602,
2009-07-31, 03:11:05,VALID,998.001,VALID,0,VALID,60.4647,VALID,0,VALID,26.5904,VALID,161,VALID,6.45469,
2009-07-31, 03:12:05,VALID,998.032,VALID,0,VALID,60.6479,VALID,0,VALID,26.5708,VALID,173,VALID,5.17422,
2009-07-31, 03:13:05,VALID,998.056,VALID,0,VALID,60.48,VALID,0,VALID,26.5318,VALID,176,VALID,6.85352,
2009-07-31, 03:14:05,VALID,998.013,VALID,0,VALID,60.3884,VALID,0,VALID,26.5708,VALID,174,VALID,6.30078,
2009-07-31, 03:15:05,VALID,998.029,VALID,0,VALID,60.5944,VALID,0,VALID,26.5493,VALID,176,VALID,7.39102,
2009-07-31, 03:16:05,VALID,998.06,VALID,0,VALID,60.8462,VALID,0,VALID,26.5904,VALID,163,VALID,6.39453,
2009-07-31, 03:17:05,VALID,998.091,VALID,0,VALID,60.7547,VALID,0,VALID,26.5904,VALID,169,VALID,5.45977,
2009-07-31, 03:18:05,VALID,998.046,VALID,0,VALID,61.0904,VALID,0,VALID,26.5708,VALID,181,VALID,5.81172,
2009-07-31, 03:19:05,VALID,997.996,VALID,0,VALID,61.243,VALID,0,VALID,26.5708,VALID,162,VALID,5.73008,
2009-07-31, 03:20:05,VALID,997.856,VALID,0,VALID,61.0675,VALID,0,VALID,26.5884,VALID,167,VALID,8.57813,
2009-07-31, 03:21:04,VALID,997.88,VALID,0,VALID,61.0675,VALID,0,VALID,26.6079,VALID,180,VALID,8.02305,
2009-07-31, 03:22:04,VALID,997.958,VALID,0,VALID,61.3421,VALID,0,VALID,26.649,VALID,175,VALID,9.21562,
2009-07-31, 03:23:04,VALID,997.943,VALID,0,VALID,60.9607,VALID,0,VALID,26.6685,VALID,169,VALID,6.6,
2009-07-31, 03:24:04,VALID,998.012,VALID,0,VALID,61.2659,VALID,0,VALID,26.6469,VALID,176,VALID,6.94102,
2009-07-31, 03:25:04,VALID,997.923,VALID,0,VALID,61.5329,VALID,0,VALID,26.5884,VALID,176,VALID,7.74453,
2009-07-31, 03:26:04,VALID,997.977,VALID,0,VALID,61.51,VALID,0,VALID,26.649,VALID,175,VALID,7.72109,
2009-07-31, 03:27:04,VALID,997.972,VALID,0,VALID,61.983,VALID,0,VALID,26.6119,VALID,169,VALID,4.44727,
2009-07-31, 03:28:04,VALID,997.985,VALID,0,VALID,62.1204,VALID,0,VALID,26.5708,VALID,170,VALID,7.33086,
2009-07-31, 03:29:04,VALID,998.009,VALID,0,VALID,61.9983,VALID,0,VALID,26.5708,VALID,179,VALID,7.12734,
2009-07-31, 03:30:04,VALID,997.927,VALID,0,VALID,61.9144,VALID,0,VALID,26.6099,VALID,176,VALID,6.89492,
2009-07-31, 03:31:04,VALID,998.026,VALID,0,VALID,61.5787,VALID,0,VALID,26.6099,VALID,174,VALID,7.19844,
2009-07-31, 03:32:04,VALID,997.885,VALID,0,VALID,61.3803,VALID,0,VALID,26.6685,VALID,187,VALID,6.75547,
2009-07-31, 03:33:04,VALID,997.971,VALID,0,VALID,61.3879,VALID,0,VALID,26.6685,VALID,167,VALID,7.42109,
2009-07-31, 03:34:04,VALID,997.928,VALID,0,VALID,61.3498,VALID,0,VALID,26.7271,VALID,174,VALID,6.69219,
2009-07-31, 03:35:04,VALID,997.919,VALID,0,VALID,61.571,VALID,0,VALID,26.7076,VALID,171,VALID,6.0668,
2009-07-31, 03:36:04,VALID,997.921,VALID,0,VALID,61.6092,VALID,0,VALID,26.6685,VALID,170,VALID,5.07188,
2009-07-31, 03:37:04,VALID,997.876,VALID,0,VALID,60.8462,VALID,0,VALID,26.7076,VALID,177,VALID,7.02773,
2009-07-31, 03:38:04,VALID,997.873,VALID,0,VALID,60.686,VALID,0,VALID,26.7055,VALID,181,VALID,9.24219,
2009-07-31, 03:39:04,VALID,997.93,VALID,0,VALID,60.3961,VALID,0,VALID,26.8052,VALID,177,VALID,5.27422,
2009-07-31, 03:40:04,VALID,997.896,VALID,0,VALID,60.3808,VALID,0,VALID,26.7857,VALID,177,VALID,8.01875,
2009-07-31, 03:41:04,VALID,997.916,VALID,0,VALID,60.4571,VALID,0,VALID,26.7857,VALID,167,VALID,7.27266,
2009-07-31, 03:42:04,VALID,997.98,VALID,0,VALID,60.5029,VALID,0,VALID,26.8247,VALID,167,VALID,6.25313,
2009-07-31, 03:43:04,VALID,997.976,VALID,0,VALID,60.274,VALID,0,VALID,26.8052,VALID,177,VALID,6.22852,
2009-07-31, 03:44:04,VALID,998.003,VALID,0,VALID,60.2282,VALID,0,VALID,26.7857,VALID,174,VALID,8.15273,
2009-07-31, 03:45:04,VALID,998.011,VALID,0,VALID,60.2359,VALID,0,VALID,26.7857,VALID,170,VALID,8.37773,
2009-07-31, 03:46:04,VALID,997.98,VALID,0,VALID,60.1748,VALID,0,VALID,26.7661,VALID,170,VALID,6.81641,